Theta_e
333 331 331 332 327 322 319 319 322 324 326 323 321 319 319 315 312 311 310 310 309 309 310 309 309 310 309 309 309 310 310 312 310 310 310 314 314 315 314 312 310 309 307
329 328 328 330 324 320 317 318 320 321 321 318 318 315 314 313 311 308 308 307 307 308 308 309 308 308 309 308 308 310 310 312 310 309 311 312 316 308 312 309 309 306 305
327 327 327 330 325 320 318 316 315 315 314 314 314 313 311 310 309 307 307 306 307 307 307 308 308 308 308 309 308 309 309 311 310 309 309 310 310 309 310 309 308 306 305
325 323 324 327 328 322 318 315 314 313 312 313 312 311 310 310 308 307 306 306 306 306 307 307 307 308 308 308 308 307 308 308 308 308 308 308 308 309 309 307 307 304 302
324 321 320 321 325 324 321 317 314 314 312 313 314 314 310 308 307 306 306 305 305 305 306 306 307 307 307 306 306 306 306 306 306 307 306 305 306 305 306 305 303 302 301
322 319 317 317 316 317 318 317 316 313 312 312 311 310 308 307 306 306 306 305 305 305 306 306 306 305 305 306 305 304 305 305 304 304 303 304 304 303 302 301 301 299 299
319 317 316 314 312 313 312 312 311 310 309 308 308 307 306 306 306 306 305 305 305 305 305 304 304 303 304 304 303 303 303 304 302 301 301 301 300 299 299 299 298 297 298
319 317 315 312 311 310 310 309 308 308 307 307 307 307 306 306 306 306 305 305 305 305 304 303 302 302 302 303 302 302 302 301 300 300 299 299 298 298 298 297 297 297 297
320 317 314 312 310 310 309 308 307 306 306 306 306 305 305 304 305 305 304 304 303 304 303 302 301 301 301 301 301 300 301 299 299 298 298 297 297 296 296 296 296 296 295
321 317 314 312 310 309 308 306 306 306 305 305 305 304 304 304 304 303 303 302 303 303 303 301 301 300 300 300 300 300 300 299 298 298 298 296 296 296 296 295 295 296 296
321 317 314 311 310 309 307 307 305 305 304 304 304 304 303 303 303 303 303 302 302 302 302 300 300 299 299 299 299 299 299 299 298 298 297 296 296 296 294 294 294 293 294
321 317 314 312 310 309 307 307 306 305 304 304 303 303 303 303 303 303 302 302 301 301 300 299 299 299 298 298 298 298 298 298 298 297 297 296 295 294 293 292 292 292 292
321 317 315 313 310 309 308 307 306 305 304 303 303 302 302 302 302 302 302 301 300 300 300 299 298 297 297 297 298 298 298 297 297 297 296 296 293 293 292 290 290 290 290
321 317 315 313 311 309 308 307 306 305 304 303 303 302 302 302 302 301 301 300 300 300 299 298 297 295 294 294 297 297 297 297 297 296 296 295 292 291 291 288 288 289 290
322 318 316 313 311 310 308 307 306 305 303 303 302 302 302 301 301 301 300 300 299 299 299 297 295 293 290 289 294 297 296 296 296 296 295 294 293 291 290 287 289 290 290
323 319 316 314 312 310 309 307 306 305 303 303 302 302 302 301 300 300 300 299 299 298 298 297 295 292 289 289 291 295 296 296 295 295 295 293 292 290 287 287 290 290 290
323 319 317 314 312 310 309 307 306 304 303 302 302 302 301 301 300 300 299 298 298 298 297 297 296 293 288 289 291 294 295 295 295 294 294 292 291 289 286 287 288 289 288
323 320 317 314 312 310 309 308 306 304 303 302 302 301 301 300 300 299 299 298 298 297 297 297 296 293 288 289 292 294 295 295 294 294 293 291 289 286 285 286 288 288 287
323 320 317 314 312 310 308 307 305 304 303 302 301 300 300 300 299 299 299 298 298 297 297 296 296 295 290 289 290 293 294 294 294 293 293 291 289 285 285 286 287 286 286
322 319 316 314 312 310 308 307 305 304 303 302 301 300 300 299 299 299 298 298 298 297 296 295 296 295 293 288 288 292 292 292 293 293 292 291 287 286 286 286 287 286 287
321 318 317 314 312 310 308 307 305 304 303 301 300 299 299 299 298 298 298 297 297 296 295 295 293 294 293 287 287 289 289 290 292 291 290 288 286 286 287 286 286 286 287
320 319 317 314 312 310 308 307 305 304 303 301 299 299 299 298 298 298 297 297 296 295 294 294 294 293 290 287 286 287 287 288 290 289 288 286 286 286 286 286 285 285 285
319 319 317 314 312 310 308 307 305 304 302 300 299 299 298 298 298 297 297 296 295 295 295 295 294 293 293 290 288 288 287 286 288 287 287 286 286 286 285 285 285 285 284
317 317 317 315 313 310 309 307 305 304 301 299 299 298 298 298 297 296 296 295 296 296 296 296 295 293 292 291 289 289 288 286 286 286 287 286 286 285 285 284 284 284 283
313 316 317 315 313 310 308 307 305 303 300 299 298 298 297 297 296 296 295 296 296 296 295 295 294 292 291 289 287 286 284 283 285 287 286 285 285 284 284 284 283 283 282
308 313 316 315 313 310 308 306 304 302 300 299 298 298 296 296 296 294 292 295 295 296 295 294 294 292 291 287 282 281 282 284 286 286 285 284 284 284 283 283 282 282 281
Wind_Speed
15 18 16 18 21 16 14 14 15 15 15 16 15 14 14 12 14 13 11 9 12 10 12 12 10 14 14 15 15 17 12 16 23 15 15 13 16 25 22 22 26 26 27
15 15 16 20 18 17 15 16 18 19 19 14 14 14 15 13 13 12 13 11 13 13 12 13 13 14 14 16 16 18 15 16 21 15 10 5 4 21 24 23 24 29 27
16 14 17 18 24 20 19 18 20 20 18 16 19 18 15 16 15 13 12 12 13 13 14 13 14 14 14 15 17 18 17 16 18 23 11 4 3 15 12 19 23 29 25
15 13 16 18 20 22 19 19 19 19 16 18 16 19 20 16 15 14 12 13 13 14 13 15 15 15 14 17 15 16 17 18 18 14 19 15 14 3 5 17 20 27 29
17 15 16 19 18 21 24 22 20 17 17 18 16 13 18 18 15 15 13 13 14 15 14 15 15 14 15 14 14 17 18 19 18 18 18 18 16 20 6 4 22 24 25
17 16 20 21 20 19 19 20 20 17 15 15 16 15 18 18 17 15 14 13 13 13 14 13 13 14 13 13 16 16 18 19 19 19 18 18 13 14 11 6 15 18 20
17 17 17 21 23 22 21 20 20 19 18 17 15 18 17 17 18 15 14 14 14 13 12 12 13 13 14 16 16 17 18 18 18 18 17 17 17 15 15 13 13 10 16
17 18 18 23 25 25 24 23 23 22 20 20 19 18 18 17 16 15 14 15 15 13 12 13 13 15 16 15 15 17 16 17 17 18 17 15 16 15 15 15 15 9 8
21 19 19 23 26 26 25 25 24 23 22 21 21 19 17 16 16 16 16 16 15 14 14 13 14 15 16 15 15 16 16 16 15 16 16 15 16 16 15 15 16 14 7
23 20 18 24 25 26 24 25 24 23 23 23 21 19 18 18 17 17 17 17 17 16 15 14 15 15 15 15 14 14 14 15 14 14 15 16 17 15 16 17 17 18 18
27 23 20 29 27 26 26 25 26 26 25 24 22 22 20 19 17 18 18 17 17 16 15 15 14 14 14 13 12 13 13 13 14 14 14 15 16 17 18 18 18 21 20
26 23 21 28 29 27 29 27 27 27 25 24 25 23 22 20 19 18 18 17 17 16 16 14 14 13 13 12 12 12 12 13 14 13 13 15 15 15 18 19 20 20 22
26 23 22 21 28 29 29 28 27 28 28 26 25 25 23 22 20 19 19 18 17 17 16 14 14 13 12 12 11 11 11 11 11 11 12 12 14 16 18 20 21 21 22
25 23 21 20 28 30 30 29 28 28 28 28 27 25 24 23 22 21 19 19 17 17 16 15 14 12 11 11 11 8 9 9 9 9 10 10 13 17 18 20 20 22 23
26 26 23 21 30 32 32 31 30 31 30 28 27 27 26 24 23 22 20 19 18 17 16 16 14 10 9 10 9 10 7 7 8 8 10 11 12 16 18 19 21 26 25
28 25 24 23 27 33 34 34 34 34 32 30 28 28 28 26 24 22 21 20 19 17 16 15 13 7 9 8 8 10 9 7 7 8 8 9 13 18 22 23 19 22 26
25 25 26 24 30 34 35 33 34 34 33 31 30 29 29 27 25 24 22 20 19 18 16 15 12 7 8 7 7 7 8 7 6 6 6 8 10 17 23 23 20 21 22
22 23 21 28 33 35 34 33 34 33 32 31 31 30 30 28 26 25 23 22 20 18 17 15 12 6 7 5 7 8 7 6 4 5 5 7 10 19 21 21 21 23 23
17 21 30 32 34 36 36 34 34 34 32 32 33 32 31 31 29 26 25 23 21 19 17 15 13 7 5 5 5 7 7 4 4 4 4 7 14 16 18 19 20 30 30
15 21 33 34 37 39 41 40 37 36 34 34 34 33 32 31 30 28 28 24 22 20 17 15 13 9 5 5 6 9 6 5 5 3 6 10 15 15 16 19 18 27 32
18 30 34 36 41 42 41 36 35 34 34 33 34 33 32 31 30 29 27 26 23 21 19 16 13 12 5 6 7 8 4 7 3 3 4 10 13 15 17 18 21 25 26
15 28 30 35 41 44 43 38 36 36 32 33 33 32 31 30 29 29 27 25 24 23 21 18 15 11 10 5 6 6 6 6 4 3 5 12 14 17 18 20 22 24 26
15 23 27 32 36 42 42 38 36 38 37 36 34 34 32 30 31 29 28 26 25 23 22 20 18 15 11 5 4 6 6 6 4 5 9 12 13 15 17 19 22 23 28
11 18 23 26 30 39 39 38 39 40 40 38 36 35 34 32 30 27 27 25 25 24 22 21 21 18 14 9 6 4 1 3 2 5 7 10 11 13 15 19 21 23 26
18 19 20 24 29 37 37 38 41 42 40 37 36 36 33 33 31 26 25 24 24 23 24 22 23 22 19 16 11 11 7 5 6 8 7 10 13 15 17 19 21 23 26
25 14 23 25 29 35 37 39 41 44 42 37 36 35 35 34 30 32 23 26 24 23 23 22 24 22 18 14 12 9 10 10 9 7 6 9 12 14 16 19 21 22 25
Wind_Direction
162 167 159 131 119 125 139 149 156 160 160 149 136 125 129 115 95 84 79 81 80 76 86 59 71 56 44 40 34 24 24 31 11 356 348 360 101 59 52 47 32 23 11
149 166 162 146 136 146 150 150 148 143 136 123 124 125 127 124 119 103 87 81 78 78 73 78 60 66 52 44 40 37 32 36 33 12 338 7 18 21 40 43 29 18 11
167 167 173 170 144 154 156 151 151 151 146 154 139 132 133 129 126 110 91 80 78 75 78 74 77 65 63 52 43 45 34 26 37 44 45 14 7 327 355 17 15 10 7
167 173 172 169 158 153 158 155 155 151 160 151 150 148 150 153 122 116 110 95 85 81 74 76 71 68 62 58 48 49 47 44 34 38 39 38 19 354 336 342 358 359 356
171 173 172 169 160 150 157 157 155 156 155 158 170 175 124 125 126 124 118 100 87 78 75 77 75 71 70 66 62 55 51 50 43 38 33 30 21 22 2 323 344 347 349
168 170 171 163 151 154 151 152 155 152 158 154 151 150 140 141 138 141 127 112 95 83 79 75 79 79 77 71 66 60 56 53 49 44 37 32 36 19 16 340 341 336 334
173 174 171 164 156 155 153 156 153 153 153 151 146 142 143 144 138 138 134 127 113 97 91 92 86 81 78 73 66 63 58 55 53 49 41 43 39 28 17 2 337 321 331
176 180 176 171 166 161 161 165 158 154 154 150 146 144 141 141 141 137 131 120 115 113 108 99 87 79 79 74 68 67 63 62 56 50 47 47 36 29 22 4 344 329 325
176 180 179 175 168 164 167 166 160 156 156 151 147 147 143 140 136 130 125 121 125 120 113 100 87 80 77 77 71 70 65 63 58 51 49 45 34 28 17 6 352 343 322
175 175 174 176 167 165 169 166 164 160 156 152 150 145 141 136 138 136 133 132 122 121 115 103 91 83 78 77 77 73 69 66 60 52 50 42 32 21 10 1 347 342 330
176 175 172 169 166 165 167 171 167 160 156 152 153 146 143 144 143 135 133 131 129 125 116 103 96 88 81 80 82 78 71 66 59 50 44 35 24 21 6 355 349 339 336
172 170 170 168 165 170 168 174 169 160 157 156 152 149 145 147 143 142 137 135 130 126 117 111 103 94 88 84 80 75 68 61 54 44 38 32 19 10 1 352 344 338 334
164 165 168 169 169 171 171 176 171 163 161 157 155 153 152 150 148 144 143 137 131 128 123 118 107 99 91 86 78 73 68 62 55 43 34 29 13 0 356 352 343 338 331
162 165 169 170 170 171 173 175 172 167 167 160 159 157 157 155 152 149 146 141 139 134 131 120 111 104 101 102 93 76 69 61 52 40 29 21 5 0 349 346 345 338 330
165 174 173 170 171 171 171 175 174 170 169 164 163 161 159 155 154 151 148 146 142 140 136 126 114 102 84 77 109 113 80 59 51 40 28 9 12 355 342 349 349 344 333
187 175 172 169 173 172 172 176 175 173 169 167 165 161 156 155 155 154 151 148 144 142 136 131 122 116 79 72 92 116 97 63 50 39 28 23 347 341 345 356 4 355 353
179 175 174 172 172 173 173 176 175 170 169 168 164 162 159 156 157 154 153 150 149 147 140 135 131 119 86 84 110 109 96 71 49 37 26 22 354 338 351 357 358 353 354
177 172 173 170 172 171 171 172 172 173 170 167 164 165 160 157 158 158 157 156 153 149 145 144 144 140 95 97 116 98 81 69 51 40 12 13 346 350 354 358 355 345 351
169 170 172 165 168 167 168 169 172 173 173 171 167 166 164 161 161 161 160 158 155 152 150 149 149 172 124 92 118 116 83 81 67 36 343 343 350 0 3 2 353 347 349
159 157 163 165 166 171 170 171 175 177 177 173 168 167 167 164 163 161 161 161 160 153 152 149 155 163 154 95 103 116 89 104 72 37 5 342 351 10 11 3 355 343 345
164 163 167 171 173 173 171 173 175 179 178 172 168 167 167 165 163 160 162 161 159 157 153 154 154 144 165 114 101 119 108 130 82 50 352 333 9 16 13 4 355 348 346
164 178 175 171 171 174 173 174 177 175 173 170 168 166 166 164 163 160 161 163 161 157 156 154 159 171 169 127 101 98 92 115 78 27 357 8 18 18 10 5 359 360 355
181 193 179 172 174 176 177 174 175 170 169 168 168 167 165 165 163 160 160 164 161 162 165 163 164 162 171 152 100 75 65 60 81 43 19 11 18 15 9 6 4 4 360
183 201 186 180 175 178 179 175 172 170 168 168 168 167 165 161 161 162 166 165 167 171 172 172 167 165 160 147 136 113 103 104 75 75 45 12 25 17 11 7 7 5 1
325 189 194 184 181 175 175 173 172 169 168 168 167 166 165 160 161 164 168 171 175 179 177 177 169 164 164 179 187 178 175 139 101 79 43 24 22 16 12 8 7 3 1
319 293 184 184 179 175 174 174 173 170 167 167 169 168 163 162 162 160 148 173 180 176 179 175 177 170 185 181 171 160 132 115 107 86 53 34 22 17 12 7 1 0 358